RTU MIREA 1 (RS51S)

Last updated on Wed Feb 05 2025 00:03:01 GMT+0000 (Coordinated Universal Time)

1 61785U 24199BC 25035.56988706 .00026546 00000+0 98736-3 0 9994 2 61785 97.3745 265.0820 0015230 281.7111 78.2419 15.27377406 57813
UTC large
Height (km)
Speed (km/s)
/
Latitude / Longitude
Inclination (degrees)
Orbital Period (minutes)
Azimuth
Elevation
Range (km)
Doppler Factor

Next 0 passes for location: London (51.5072 / 0.1276)

Sorry there are no passes over London.